Portada
METAR-TAF:

METAR-TAF

Aeroports :

Columbus County Municipal Airport

Whiteville, Carolina del Nord, Estats Units d'Amèrica

latitud: 34-16-22N, longitud: 078-42-54W, altitud: 30 m

Observació

L'informe es va fer fa 12 minuts, a les 22:35 UTC
Vent 5 kt del Sud-Est
Temperatura 30°C
Humitat 70%
Pressió 1019 hPa
Visibilitat: 16.1 km
Núvols disperses a una alçada de 4000 ft
Núvols disperses a una alçada de 5000 ft

METAR: KCPC 082235Z AUTO 14005KT 10SM SCT040 SCT050 30/24 A3010 RMK AO2 T03000244

Hora: 18:47 (22:47 UTC)


TAF: manca

Observacions i pronòstics meteorològics de més de 4000 aeroports (METAR i TAF).

Les estacions disponibles són els punts grocs i vermells al mapa.

Posi el ratolí al punt desitjat per veure el nom de l'estació.

Feu clic per veure les observacions i els pronòstics meteorològics.

Per canviar el mapa: feu clic els botons verds amb una creu de color negre per apropar; al botó verd amb un guió per allunyar la imatge; o en les fletxes verdes per a mapes adjacents.


METAR-TAF: